FDX1156 KMEM-KCHA

Flight info

Callsign FDX1156
Flight time 0h 40m
Altitude 29000
Route AZONE7 PITEW KT30O
Aircraft B752/M-SDE2E3FGHIJ3J4J7RWXY/LB1

Departure

Time 2026-04-20 21:24
Airport Memphis International Airport (KMEM)

Arrival

Time 2026-04-20 22:04
Airport Chattanooga Metropolitan Airport (Lovell Field) (KCHA)
Time Latitude Longitude Altitude Speed Heading
2026-04-20 20:54 35.06267 -89.97356 262 ft 0 kts 360°
2026-04-20 20:57 35.06255 -89.97356 262 ft 6 kts
2026-04-20 20:58 35.06239 -89.97356 262 ft 0 kts
2026-04-20 21:17 35.06240 -89.97356 262 ft 0 kts
2026-04-20 21:21 35.06242 -89.97356 262 ft 0 kts
2026-04-20 21:22 35.06244 -89.97356 262 ft 1 kts 16°
2026-04-20 21:22 35.06225 -89.97335 262 ft 9 kts 228°
2026-04-20 21:22 35.06199 -89.97427 262 ft 12 kts 258°
2026-04-20 21:23 35.06158 -89.97512 262 ft 11 kts 213°
2026-04-20 21:23 35.06016 -89.97536 265 ft 27 kts 181°
2026-04-20 21:23 35.05825 -89.97485 266 ft 28 kts 173°
2026-04-20 21:23 35.05556 -89.97485 273 ft 74 kts 179°
2026-04-20 21:24 35.04642 -89.97463 341 ft 180 kts 181°
2026-04-20 21:24 35.03180 -89.97441 990 ft 239 kts 181°
2026-04-20 21:24 35.01392 -89.97360 2269 ft 276 kts 178°
2026-04-20 21:24 34.99699 -89.97156 4716 ft 257 kts 174°
2026-04-20 21:25 34.97943 -89.96491 6151 ft 284 kts 150°
2026-04-20 21:25 34.96427 -89.94903 7655 ft 308 kts 126°
2026-04-20 21:25 34.95438 -89.92547 9172 ft 318 kts 106°
2026-04-20 21:25 34.95132 -89.90080 10593 ft 296 kts 90°
2026-04-20 21:26 34.95056 -89.87681 12030 ft 280 kts 90°
2026-04-20 21:26 34.94962 -89.85452 13448 ft 256 kts 86°
2026-04-20 21:26 34.95252 -89.83592 14837 ft 207 kts 56°
2026-04-20 21:26 34.95789 -89.82264 16055 ft 158 kts 53°
2026-04-20 21:27 34.96326 -89.81025 16120 ft 192 kts 52°
2026-04-20 21:27 34.97041 -89.79481 16620 ft 220 kts 53°
2026-04-20 21:27 34.97771 -89.77879 17585 ft 226 kts 52°
2026-04-20 21:27 34.98598 -89.76137 18261 ft 248 kts 53°
2026-04-20 21:28 34.99248 -89.74081 18928 ft 280 kts 74°
2026-04-20 21:28 34.99512 -89.71615 19610 ft 305 kts 76°
2026-04-20 21:28 34.99791 -89.69000 20270 ft 322 kts 76°
2026-04-20 21:28 35.00085 -89.66217 20535 ft 341 kts 77°
2026-04-20 21:29 35.00385 -89.63309 21000 ft 356 kts 77°
2026-04-20 21:29 35.00706 -89.60236 21205 ft 379 kts 77°
2026-04-20 21:29 35.01046 -89.56940 21493 ft 399 kts 77°
2026-04-20 21:29 35.01394 -89.53523 22077 ft 410 kts 77°
2026-04-20 21:30 35.01745 -89.50075 22911 ft 413 kts 77°
2026-04-20 21:30 35.02097 -89.46616 23612 ft 419 kts 77°
2026-04-20 21:30 35.02457 -89.43070 24263 ft 426 kts 77°
2026-04-20 21:30 35.02822 -89.39461 24918 ft 431 kts 77°
2026-04-20 21:31 35.03188 -89.35841 25555 ft 436 kts 77°
2026-04-20 21:31 35.03560 -89.32163 26102 ft 443 kts 78°
2026-04-20 21:31 35.03937 -89.28396 26733 ft 446 kts 78°
2026-04-20 21:31 35.04313 -89.24651 27261 ft 452 kts 78°
2026-04-20 21:32 35.04671 -89.20869 27850 ft 456 kts 80°
2026-04-20 21:32 35.04778 -89.16922 28308 ft 465 kts 85°
2026-04-20 21:32 35.04816 -89.13005 28806 ft 470 kts 84°
2026-04-20 21:32 35.04855 -89.09027 28978 ft 473 kts 85°
2026-04-20 21:33 35.04882 -89.04988 28976 ft 481 kts 85°
2026-04-20 21:33 35.04906 -89.00841 28978 ft 495 kts 85°
2026-04-20 21:33 35.04927 -88.96607 28977 ft 508 kts 85°
2026-04-20 21:33 35.04946 -88.92240 28975 ft 520 kts 85°
2026-04-20 21:34 35.04963 -88.87819 28976 ft 530 kts 85°
2026-04-20 21:34 35.04989 -88.78859 28972 ft 529 kts 85°
2026-04-20 21:35 35.05010 -88.69855 28975 ft 532 kts 85°
2026-04-20 21:35 35.05025 -88.60876 28982 ft 531 kts 85°
2026-04-20 21:36 35.05033 -88.51875 28977 ft 532 kts 85°
2026-04-20 21:36 35.05036 -88.42928 28979 ft 531 kts 85°
2026-04-20 21:37 35.05032 -88.33925 28969 ft 532 kts 86°
2026-04-20 21:37 35.05022 -88.24879 28957 ft 536 kts 86°
2026-04-20 21:38 35.05003 -88.15826 28958 ft 535 kts 85°
2026-04-20 21:38 35.04979 -88.06817 28973 ft 535 kts 85°
2026-04-20 21:39 35.04948 -87.97742 28979 ft 536 kts 85°
2026-04-20 21:39 35.04911 -87.88689 28979 ft 536 kts 85°
2026-04-20 21:40 35.04865 -87.79596 28983 ft 534 kts 85°
2026-04-20 21:40 35.04814 -87.70564 28980 ft 536 kts 85°
2026-04-20 21:41 35.04756 -87.61537 28991 ft 534 kts 85°
2026-04-20 21:41 35.04691 -87.52496 28985 ft 533 kts 85°
2026-04-20 21:42 35.04621 -87.43469 28990 ft 535 kts 85°
2026-04-20 21:42 35.04543 -87.34393 28987 ft 536 kts 86°
2026-04-20 21:43 35.04456 -87.25370 29042 ft 531 kts 85°
2026-04-20 21:43 35.04365 -87.16314 29035 ft 535 kts 85°
2026-04-20 21:44 35.04269 -87.07274 29039 ft 537 kts 85°
2026-04-20 21:44 35.04162 -86.98139 29044 ft 537 kts 85°
2026-04-20 21:45 35.04040 -86.89061 29035 ft 536 kts 87°
2026-04-20 21:45 35.02947 -86.80100 28617 ft 534 kts 95°
2026-04-20 21:45 35.02458 -86.75620 27742 ft 528 kts 90°
2026-04-20 21:46 35.02149 -86.71243 27114 ft 518 kts 89°
2026-04-20 21:46 35.01935 -86.66887 26430 ft 508 kts 87°
2026-04-20 21:46 35.01778 -86.62618 25673 ft 502 kts 86°
2026-04-20 21:46 35.01658 -86.58415 24948 ft 494 kts 86°
2026-04-20 21:47 35.01557 -86.54263 24184 ft 488 kts 85°
2026-04-20 21:47 35.01472 -86.50202 23402 ft 475 kts 85°
2026-04-20 21:47 35.01392 -86.46222 21904 ft 471 kts 85°
2026-04-20 21:47 35.01320 -86.42293 20768 ft 458 kts 85°
2026-04-20 21:48 35.01250 -86.38517 19440 ft 452 kts 85°
2026-04-20 21:48 35.01183 -86.34738 18220 ft 442 kts 86°
2026-04-20 21:48 35.01095 -86.31039 16956 ft 436 kts 89°
2026-04-20 21:48 35.00837 -86.27418 15759 ft 429 kts 93°
2026-04-20 21:49 35.00477 -86.23858 14453 ft 422 kts 91°
2026-04-20 21:49 35.00248 -86.20384 13266 ft 412 kts 91°
2026-04-20 21:49 35.00028 -86.16940 12116 ft 403 kts 90°
2026-04-20 21:49 34.99810 -86.13622 10904 ft 396 kts 90°
2026-04-20 21:50 34.99596 -86.10373 10267 ft 374 kts 90°
2026-04-20 21:50 34.99381 -86.07208 10289 ft 371 kts 90°
2026-04-20 21:50 34.99167 -86.04211 10264 ft 336 kts 90°
2026-04-20 21:50 34.98957 -86.01524 10272 ft 309 kts 90°
2026-04-20 21:51 34.98743 -85.98952 10283 ft 306 kts 90°
2026-04-20 21:51 34.98522 -85.96317 10289 ft 312 kts 90°
2026-04-20 21:51 34.98300 -85.93715 10288 ft 310 kts 90°
2026-04-20 21:51 34.98076 -85.91096 10287 ft 311 kts 90°
2026-04-20 21:52 34.97856 -85.88493 10280 ft 310 kts 90°
2026-04-20 21:52 34.97647 -85.85881 10280 ft 309 kts 90°
2026-04-20 21:52 34.97396 -85.83257 10280 ft 313 kts 98°
2026-04-20 21:52 34.96534 -85.80816 10152 ft 316 kts 123°
2026-04-20 21:53 34.95021 -85.78875 9486 ft 319 kts 139°
2026-04-20 21:53 34.93402 -85.77045 8922 ft 312 kts 126°
2026-04-20 21:53 34.92294 -85.74817 8329 ft 306 kts 114°
2026-04-20 21:53 34.91336 -85.72536 7769 ft 302 kts 114°
2026-04-20 21:54 34.90391 -85.70274 7225 ft 297 kts 114°
2026-04-20 21:54 34.89472 -85.68051 6649 ft 294 kts 114°
2026-04-20 21:54 34.88575 -85.65852 6103 ft 289 kts 114°
2026-04-20 21:54 34.87688 -85.63663 5504 ft 287 kts 114°
2026-04-20 21:55 34.86818 -85.61506 5026 ft 280 kts 114°
2026-04-20 21:55 34.85974 -85.59416 5014 ft 277 kts 114°
2026-04-20 21:55 34.85112 -85.57264 5003 ft 288 kts 114°
2026-04-20 21:55 34.84228 -85.55068 4991 ft 285 kts 114°
2026-04-20 21:56 34.83360 -85.52917 4988 ft 284 kts 114°
2026-04-20 21:56 34.82486 -85.50747 4990 ft 286 kts 114°
2026-04-20 21:56 34.81641 -85.48553 4984 ft 285 kts 106°
2026-04-20 21:56 34.81313 -85.46220 4996 ft 280 kts 90°
2026-04-20 21:57 34.81210 -85.43863 4989 ft 280 kts 89°
2026-04-20 21:57 34.81105 -85.41493 4983 ft 278 kts 90°
2026-04-20 21:57 34.81007 -85.39152 4981 ft 279 kts 89°
2026-04-20 21:57 34.80974 -85.36784 4981 ft 278 kts 82°
2026-04-20 21:58 34.81182 -85.34426 4987 ft 279 kts 80°
2026-04-20 21:58 34.81412 -85.32072 4984 ft 279 kts 80°
2026-04-20 21:58 34.81639 -85.29729 4978 ft 278 kts 80°
2026-04-20 21:58 34.81862 -85.27422 4982 ft 278 kts 80°
2026-04-20 21:59 34.82162 -85.25101 4979 ft 275 kts 68°
2026-04-20 21:59 34.83096 -85.23147 4922 ft 261 kts 41°
2026-04-20 21:59 34.84576 -85.21963 4270 ft 255 kts 14°
2026-04-20 21:59 34.86251 -85.21436 3460 ft 253 kts 14°
2026-04-20 22:00 34.87882 -85.20637 2668 ft 253 kts 22°
2026-04-20 22:00 34.89372 -85.19656 2454 ft 229 kts 25°
2026-04-20 22:00 34.90665 -85.18707 2453 ft 203 kts 27°
2026-04-20 22:00 34.91784 -85.17818 2492 ft 188 kts 28°
2026-04-20 22:01 34.92891 -85.16904 2500 ft 193 kts 30°
2026-04-20 22:01 34.93954 -85.15982 2521 ft 183 kts 30°
2026-04-20 22:01 34.95005 -85.15063 2492 ft 186 kts 28°
2026-04-20 22:01 34.96166 -85.14632 2466 ft 172 kts 351°
2026-04-20 22:02 34.97267 -85.15193 2509 ft 172 kts 331°
2026-04-20 22:02 34.98253 -85.15787 2606 ft 147 kts 330°
2026-04-20 22:02 34.99160 -85.16357 2127 ft 145 kts 330°
2026-04-20 22:02 35.00008 -85.16987 1671 ft 142 kts 322°
2026-04-20 22:03 35.00755 -85.17689 1444 ft 130 kts 325°
2026-04-20 22:03 35.01554 -85.18333 1117 ft 145 kts 323°
2026-04-20 22:03 35.02371 -85.19034 937 ft 138 kts 324°
2026-04-20 22:03 35.03133 -85.19666 734 ft 125 kts 324°
2026-04-20 22:04 35.03799 -85.20227 676 ft 99 kts 324°
2026-04-20 22:04 35.04160 -85.20531 674 ft 31 kts 326°
2026-04-20 22:04 35.04210 -85.20573 672 ft 15 kts 325°
2026-04-20 22:04 35.04340 -85.20679 672 ft 26 kts 335°
2026-04-20 22:05 35.04402 -85.20721 671 ft 1 kts 228°
2026-04-20 22:05 35.04369 -85.20699 671 ft 16 kts 145°
2026-04-20 22:05 35.04257 -85.20601 672 ft 20 kts 143°
2026-04-20 22:05 35.04134 -85.20503 674 ft 21 kts 148°
2026-04-20 22:06 35.04001 -85.20396 675 ft 23 kts 146°
2026-04-20 22:06 35.03857 -85.20277 675 ft 26 kts 145°
2026-04-20 22:06 35.03689 -85.20233 677 ft 26 kts 195°
2026-04-20 22:06 35.03297 -85.20382 682 ft 107 kts 197°
2026-04-20 22:07 35.02740 -85.20587 679 ft 60 kts 200°
2026-04-20 22:07 35.02478 -85.20674 677 ft 18 kts 195°
2026-04-20 22:07 35.02334 -85.20724 677 ft 34 kts 190°
2026-04-20 22:07 35.02262 -85.20617 679 ft 11 kts 66°
2026-04-20 22:08 35.02303 -85.20538 680 ft 11 kts 82°
2026-04-20 22:08 35.02300 -85.20508 680 ft 0 kts 109°
2026-04-20 22:08 35.02300 -85.20507 680 ft 0 kts 109°